TimeMST,TemperatureF,Dew PointF,Humidity,Sea Level PressureIn,VisibilityMPH,Wind Direction,Wind SpeedMPH,Gust SpeedMPH,PrecipitationIn,Events,Conditions,WindDirDegrees,DateUTC
12:51 AM,68.0,39.0,35,29.63,10.0,East,8.1,-,N/A,,Scattered Clouds,80,2013-03-22 07:51:00
1:51 AM,66.0,39.9,38,29.62,10.0,ESE,4.6,-,N/A,,Partly Cloudy,110,2013-03-22 08:51:00
2:51 AM,64.9,41.0,42,29.62,10.0,East,6.9,-,N/A,,Partly Cloudy,100,2013-03-22 09:51:00
3:51 AM,63.0,41.0,45,29.62,10.0,East,5.8,-,N/A,,Clear,80,2013-03-22 10:51:00
4:51 AM,62.1,41.0,46,29.63,10.0,East,4.6,-,N/A,,Clear,90,2013-03-22 11:51:00
5:51 AM,61.0,39.0,44,29.64,10.0,East,8.1,-,N/A,,Clear,90,2013-03-22 12:51:00
6:51 AM,61.0,39.9,46,29.66,10.0,East,4.6,-,N/A,,Clear,100,2013-03-22 13:51:00
7:51 AM,63.0,37.9,40,29.69,10.0,East,4.6,-,N/A,,Clear,80,2013-03-22 14:51:00
8:51 AM,68.0,37.9,33,29.69,10.0,East,5.8,-,N/A,,Clear,90,2013-03-22 15:51:00
9:51 AM,72.0,37.0,28,29.70,10.0,ESE,4.6,-,N/A,,Clear,110,2013-03-22 16:51:00
10:51 AM,75.9,35.1,23,29.69,10.0,Calm,Calm,-,N/A,,Partly Cloudy,0,2013-03-22 17:51:00
11:51 AM,78.1,34.0,20,29.68,10.0,Calm,Calm,-,N/A,,Partly Cloudy,0,2013-03-22 18:51:00
12:51 PM,79.0,34.0,20,29.66,10.0,WNW,8.1,-,N/A,,Partly Cloudy,290,2013-03-22 19:51:00
1:51 PM,82.9,33.1,17,29.64,10.0,WSW,9.2,-,N/A,,Partly Cloudy,240,2013-03-22 20:51:00
2:51 PM,82.9,30.0,15,29.62,10.0,WNW,15.0,20.7,N/A,,Scattered Clouds,290,2013-03-22 21:51:00
3:51 PM,82.9,27.0,13,29.62,10.0,WSW,16.1,20.7,N/A,,Scattered Clouds,240,2013-03-22 22:51:00
4:51 PM,82.9,28.0,14,29.62,10.0,SW,16.1,-,N/A,,Partly Cloudy,230,2013-03-22 23:51:00
5:51 PM,82.0,23.0,11,29.62,10.0,West,10.4,-,N/A,,Partly Cloudy,270,2013-03-23 00:51:00
6:51 PM,80.1,24.1,13,29.62,10.0,WSW,10.4,-,N/A,,Partly Cloudy,240,2013-03-23 01:51:00
7:51 PM,75.9,26.1,16,29.65,10.0,WSW,6.9,-,N/A,,Clear,240,2013-03-23 02:51:00
8:51 PM,75.0,27.0,17,29.67,10.0,WSW,8.1,-,N/A,,Clear,240,2013-03-23 03:51:00
9:51 PM,72.0,28.0,20,29.69,10.0,WSW,6.9,-,N/A,,Clear,240,2013-03-23 04:51:00
10:51 PM,69.8,26.6,20,29.74,10.0,WSW,4.6,-,N/A,,Clear,250,2013-03-23 05:51:00
11:51 PM,71.1,21.0,15,29.72,10.0,WNW,4.6,-,N/A,,Clear,300,2013-03-23 06:51:00